CW4869 Weather Reports


Display with metric or nautical units.
time (UTC)temp
F
wind
direction
speed
MPH
gust
MPH
rain 1hr
in
rain 24hr
in
rain mn
in
humidity
%
barometer
mb
20260502202539 50 219 12.0 19.0 0.00 0.00 0.00 57 1013.8
20260502202059 50 241 13.0 19.0 0.00 0.00 0.00 57 1013.8
20260502201527 49 228 12.0 16.0 0.00 0.00 0.00 57 1013.9
20260502201041 48 218 13.0 17.0 0.00 0.00 0.00 54 1014.0
20260502200527 48 220 14.0 17.0 0.00 0.00 0.00 58 1014.0
20260502200037 48 217 13.0 16.0 0.00 0.00 0.00 57 1014.1
20260502195029 48 229 9.0 16.0 0.00 0.00 0.00 58 1014.3
20260502194537 49 233 13.0 16.0 0.00 0.00 0.00 59 1014.4
20260502194024 49 244 13.0 16.0 0.00 0.00 0.00 57 1014.4
20260502193530 49 239 13.0 16.0 0.00 0.00 0.00 57 1014.4
20260502193023 48 226 12.0 15.0 0.00 0.00 0.00 62 1014.5
20260502192531 49 228 12.0 15.0 0.00 0.00 0.00 56 1014.6
20260502192043 49 236 12.0 14.0 0.00 0.00 0.00 61 1014.6
20260502191526 48 242 12.0 15.0 0.00 0.00 0.00 61 1014.7
20260502191039 47 230 13.0 15.0 0.00 0.00 0.00 62 1014.7
20260502190551 48 229 11.0 14.0 0.00 0.00 0.00 63 1014.7
20260502190038 48 232 11.0 15.0 0.00 0.00 0.00 60 1014.8
20260502185526 48 244 12.0 15.0 0.00 0.00 0.00 60 1014.9
20260502185101 47 232 12.0 14.0 0.00 0.00 0.00 63 1015.0
20260502184526 47 224 11.0 16.0 0.00 0.00 0.00 60 1014.9
20260502184038 47 248 13.0 16.0 0.00 0.00 0.00 62 1015.0
20260502183554 47 231 10.0 14.0 0.00 0.00 0.00 58 1015.0
20260502183025 47 240 11.0 14.0 0.00 0.00 0.00 61 1015.0
20260502182528 47 236 12.0 14.0 0.00 0.00 0.00 59 1015.0
20260502182104 48 226 11.0 14.0 0.00 0.00 0.00 58 1015.1
20260502181555 47 240 10.0 13.0 0.00 0.00 0.00 58 1015.1
20260502181028 47 239 10.0 15.0 0.00 0.00 0.00 58 1015.1
20260502180602 47 242 10.0 14.0 0.00 0.00 0.00 57 1015.1
20260502164051 46 250 9.0 12.0 0.00 0.00 0.00 60 1015.6
20260502163540 46 285 8.0 13.0 0.00 0.00 0.00 56 1015.6
20260502163028 46 246 10.0 13.0 0.00 0.00 0.00 63 1015.6
20260502162541 45 246 10.0 12.0 0.00 0.00 0.00 64 1015.7
20260502162028 45 237 9.0 12.0 0.00 0.00 0.00 64 1015.6
20260502161534 45 259 7.0 13.0 0.00 0.00 0.00 59 1015.6
20260502161036 45 259 9.0 14.0 0.00 0.00 0.00 59 1015.7
20260502160541 45 257 9.0 14.0 0.00 0.00 0.00 60 1015.7
20260502152036 45 265 7.0 16.0 0.00 0.00 0.00 55 1016.0
20260502151522 45 300 8.0 16.0 0.00 0.00 0.00 58 1016.0
20260502151030 44 251 6.0 10.0 0.00 0.00 0.00 58 1015.9
20260502150538 44 285 4.0 9.0 0.00 0.00 0.00 60 1015.9
20260502130537 41 354 3.0 9.0 0.00 0.00 0.00 69 1016.0
20260502123533 40 269 4.0 7.0 0.00 0.00 0.00 73 1016.2
20260502123024 39 290 2.0 6.0 0.00 0.00 0.00 74 1016.2
20260502122526 39 283 3.0 10.0 0.00 0.00 0.00 75 1016.2
20260502122036 39 4 3.0 10.0 0.00 0.00 0.00 75 1016.1
20260502121057 39 56 2.0 8.0 0.00 0.00 0.00 76 1016.1
20260502120550 39 330 3.0 8.0 0.00 0.00 0.00 77 1016.1
20260502120128 39 6 4.0 11.0 0.00 0.00 0.00 77 1016.1
20260502115525 38 310 3.0 11.0 0.00 0.00 0.00 77 1016.1
20260502115039 38 18 5.0 10.0 0.00 0.00 0.00 77 1016.1
20260502114526 38 331 2.0 11.0 0.00 0.00 0.00 77 1016.0
20260502114047 38 331 5.0 11.0 0.00 0.00 0.00 78 1016.0
20260502113535 38 328 5.0 8.0 0.00 0.00 0.00 78 1016.0
20260502113027 38 314 2.0 9.0 0.00 0.00 0.00 79 1016.0
20260502112557 38 291 3.0 9.0 0.00 0.00 0.00 79 1016.0
20260502112026 38 9 2.0 11.0 0.00 0.00 0.00 79 1015.9
20260502111536 38 1 5.0 11.0 0.00 0.00 0.00 80 1015.8
20260502111027 38 342 3.0 8.0 0.00 0.00 0.00 80 1015.8
20260502110523 38 348 4.0 9.0 0.00 0.00 0.00 80 1015.8
20260502110034 38 340 4.0 10.0 0.00 0.00 0.00 80 1015.8
20260502105521 38 316 3.0 9.0 0.00 0.00 0.00 80 1015.6
20260502105030 38 334 4.0 9.0 0.00 0.00 0.00 80 1015.6
20260502104538 38 340 3.0 8.0 0.00 0.00 0.00 80 1015.5
20260502104031 38 306 3.0 9.0 0.00 0.00 0.00 80 1015.5
20260502103604 38 351 3.0 9.0 0.00 0.00 0.00 80 1015.5
20260502103026 38 1 3.0 8.0 0.00 0.00 0.00 80 1015.6
20260502102535 38 333 3.0 7.0 0.00 0.00 0.00 80 1015.5
20260502102038 38 346 4.0 7.0 0.00 0.00 0.00 80 1015.5
20260502101526 38 331 3.0 8.0 0.00 0.00 0.00 80 1015.5
20260502101036 38 327 2.0 8.0 0.00 0.00 0.00 80 1015.5
20260502100545 38 321 2.0 11.0 0.00 0.00 0.00 79 1015.5
20260502091043 39 296 4.0 9.0 0.00 0.00 0.00 76 1015.4
20260502090531 39 360 4.0 9.0 0.00 0.00 0.00 75 1015.3
20260502071534 40 321 3.0 10.0 0.00 0.00 0.00 70 1015.0
20260502071027 40 300 5.0 10.0 0.00 0.00 0.00 69 1015.1
20260502070537 40 305 3.0 8.0 0.00 0.00 0.00 69 1015.0
20260502070027 40 331 4.0 9.0 0.00 0.00 0.00 69 1015.1
20260502065534 40 314 3.0 9.0 0.00 0.00 0.00 69 1015.1
20260502065027 40 314 3.0 7.0 0.00 0.00 0.00 70 1015.2
20260502064531 41 317 3.0 9.0 0.00 0.00 0.00 70 1015.3
20260502064025 41 301 4.0 9.0 0.00 0.00 0.00 70 1015.3
20260502063558 41 98 3.0 9.0 0.00 0.00 0.00 70 1015.3
20260502063027 41 352 5.0 9.0 0.00 0.00 0.00 69 1015.3
20260502062531 41 324 4.0 9.0 0.00 0.00 0.00 69 1015.3
20260502062112 41 21 3.0 9.0 0.00 0.00 0.00 69 1015.3
20260502061030 41 331 3.0 8.0 0.00 0.00 0.00 67 1015.3
20260502060540 41 324 4.0 8.0 0.00 0.00 0.00 67 1015.3
20260502060041 41 4 5.0 8.0 0.00 0.00 0.00 67 1015.2
20260502055524 41 350 4.0 9.0 0.00 0.00 0.00 67 1015.2
20260502055036 41 356 4.0 8.0 0.00 0.00 0.00 68 1015.3
20260502054527 41 320 4.0 9.0 0.00 0.00 0.00 69 1015.3
20260502054033 41 1 3.0 9.0 0.00 0.00 0.00 68 1015.3
20260502053543 41 353 4.0 9.0 0.00 0.00 0.00 66 1015.3
20260502053036 41 340 5.0 9.0 0.00 0.00 0.00 67 1015.2
20260502052522 41 15 3.0 8.0 0.00 0.00 0.00 68 1015.1
20260502052150 41 351 3.0 11.0 0.00 0.00 0.00 68 1015.1
20260502051523 41 28 3.0 11.0 0.00 0.00 0.00 66 1015.2
20260502051039 41 1 5.0 12.0 0.00 0.00 0.00 66 1015.2
20260502050528 41 15 4.0 11.0 0.00 0.00 0.00 66 1015.2
20260502050035 41 347 5.0 11.0 0.00 0.00 0.00 65 1015.2
20260502045522 41 346 4.0 10.0 0.00 0.00 0.00 65 1015.1
20260502045032 41 355 4.0 9.0 0.00 0.00 0.00 65 1015.1
20260502044601 41 15 3.0 11.0 0.00 0.00 0.00 64 1015.0
20260502044032 41 346 6.0 11.0 0.00 0.00 0.00 64 1015.0
20260502043541 41 350 4.0 10.0 0.00 0.00 0.00 65 1015.0
20260502043030 41 18 5.0 10.0 0.00 0.00 0.00 65 1015.0
20260502042535 41 331 3.0 8.0 0.00 0.00 0.00 65 1015.0
20260502042114 41 334 4.0 10.0 0.00 0.00 0.00 64 1015.1
20260502041528 41 303 4.0 10.0 0.00 0.00 0.00 65 1015.0
20260502041038 41 311 5.0 10.0 0.00 0.00 0.00 65 1014.9
20260502040553 41 304 3.0 10.0 0.00 0.00 0.00 66 1014.9
20260502040055 41 323 4.0 10.0 0.00 0.00 0.00 67 1014.9
20260502035528 41 355 3.0 9.0 0.00 0.00 0.00 69 1014.9
20260502035040 41 322 3.0 7.0 0.00 0.00 0.00 70 1014.9
20260502034037 41 336 2.0 9.0 0.00 0.00 0.00 71 1015.0
20260502033525 41 346 5.0 9.0 0.00 0.00 0.00 71 1014.9
20260502033040 41 348 4.0 8.0 0.00 0.00 0.00 71 1014.9
20260502032521 41 336 3.0 8.0 0.00 0.00 0.00 71 1014.8
20260502032101 41 330 5.0 10.0 0.00 0.00 0.00 71 1014.8
20260502031528 41 16 3.0 10.0 0.00 0.00 0.00 71 1014.8
20260502031040 41 314 4.0 9.0 0.00 0.00 0.00 72 1014.8
20260502030525 41 33 4.0 9.0 0.00 0.00 0.00 72 1014.9
20260502030040 41 322 3.0 7.0 0.00 0.00 0.00 73 1014.9
20260502025531 41 15 3.0 9.0 0.00 0.00 0.00 74 1014.9
20260502025104 41 352 2.0 5.0 0.00 0.00 0.00 75 1014.9
20260502024533 41 89 1.0 3.0 0.00 0.00 0.00 75 1014.9
20260502024051 41 1 2.0 4.0 0.00 0.00 0.00 76 1014.9
20260502023540 41 11 0.0 4.0 0.00 0.00 0.00 77 1014.9
20260502023027 41 1 1.0 4.0 0.00 0.00 0.00 76 1014.9
20260502022540 41 28 2.0 4.0 0.00 0.00 0.00 76 1015.0
20260502022033 41 35 1.0 4.0 0.00 0.00 0.00 76 1015.1
20260502021536 41 1 3.0 4.0 0.00 0.00 0.00 76 1015.0
20260502021029 41 13 2.0 6.0 0.00 0.00 0.00 75 1015.0
20260502020539 41 13 2.0 6.0 0.00 0.00 0.00 75 1015.0
20260502020029 41 25 2.0 5.0 0.00 0.00 0.00 75 1014.9
20260502015534 41 30 3.0 6.0 0.00 0.00 0.00 75 1014.9
20260502015045 41 44 3.0 7.0 0.00 0.00 0.00 75 1014.9
20260502014531 41 23 2.0 7.0 0.00 0.00 0.00 75 1014.8
20260502014048 41 39 3.0 8.0 0.00 0.00 0.00 74 1014.8
20260502013531 41 39 3.0 8.0 0.00 0.00 0.00 74 1014.7
20260502013025 41 82 4.0 7.0 0.00 0.00 0.00 74 1014.7
20260502012532 41 66 3.0 6.0 0.00 0.00 0.00 74 1014.7
20260502012039 41 32 3.0 9.0 0.00 0.00 0.00 73 1014.6
20260502011528 41 63 3.0 9.0 0.00 0.00 0.00 73 1014.6
20260502011030 41 34 3.0 8.0 0.00 0.00 0.00 73 1014.7
20260502010540 41 28 3.0 8.0 0.00 0.00 0.00 73 1014.6
20260502010029 41 354 4.0 7.0 0.00 0.00 0.00 74 1014.6
20260502005538 41 37 4.0 8.0 0.00 0.00 0.00 73 1014.5
20260502005029 41 44 4.0 8.0 0.00 0.00 0.00 73 1014.4
20260502004533 41 49 4.0 8.0 0.00 0.00 0.00 73 1014.4
20260502004026 41 35 4.0 8.0 0.00 0.00 0.00 74 1014.2
20260502003536 41 84 4.0 7.0 0.00 0.00 0.00 74 1014.2
20260502003043 41 63 3.0 7.0 0.00 0.00 0.00 74 1014.2
20260502002557 41 46 4.0 6.0 0.00 0.00 0.00 74 1014.2
20260502002051 41 70 3.0 6.0 0.00 0.00 0.00 74 1014.1
20260502001534 41 53 3.0 8.0 0.00 0.00 0.00 74 1014.1
20260502001027 41 103 4.0 8.0 0.00 0.00 0.00 74 1014.0
20260502000537 41 72 3.0 6.0 0.00 0.00 0.00 74 1014.0
20260502000030 41 100 4.0 7.0 0.00 0.00 0.00 73 1014.0
20260501235534 41 56 3.0 8.0 0.00 0.00 0.00 73 1013.9
20260501235028 41 61 3.0 8.0 0.00 0.00 0.00 72 1013.9
20260501234551 41 46 4.0 11.0 0.00 0.00 0.00 73 1013.9
20260501234052 41 60 3.0 11.0 0.00 0.00 0.00 73 1013.9
20260501233602 41 46 3.0 9.0 0.00 0.00 0.00 73 1013.9
20260501233033 41 89 5.0 8.0 0.00 0.00 0.00 73 1013.8
20260501232537 41 60 2.0 7.0 0.00 0.00 0.00 73 1013.9
20260501232027 41 56 4.0 9.0 0.00 0.00 0.00 73 1013.8
20260501231535 41 79 5.0 9.0 0.00 0.00 0.00 74 1013.8
20260501231049 41 60 4.0 9.0 0.00 0.00 0.00 73 1013.8
20260501230559 41 46 4.0 9.0 0.00 0.00 0.00 73 1013.7
20260501230054 41 42 5.0 9.0 0.00 0.00 0.00 73 1013.8
20260501225539 41 72 5.0 10.0 0.00 0.00 0.00 73 1013.7
20260501225024 41 30 5.0 10.0 0.00 0.00 0.00 74 1013.8
20260501224532 41 94 5.0 11.0 0.00 0.00 0.00 75 1013.7
20260501224043 41 42 4.0 11.0 0.00 0.00 0.00 76 1013.7
20260501223528 41 59 5.0 11.0 0.00 0.00 0.00 75 1013.6
20260501223038 42 58 5.0 9.0 0.00 0.00 0.00 74 1013.6
20260501222552 41 79 5.0 9.0 0.00 0.00 0.00 74 1013.6
20260501222055 41 82 4.0 9.0 0.00 0.00 0.00 75 1013.5
20260501221540 42 42 4.0 9.0 0.00 0.00 0.00 74 1013.5
20260501221029 42 58 5.0 8.0 0.00 0.00 0.00 74 1013.5
20260501220531 42 49 5.0 8.0 0.00 0.00 0.00 74 1013.5
20260501220043 42 21 4.0 8.0 0.00 0.00 0.00 75 1013.4
20260501215533 42 34 4.0 10.0 0.00 0.00 0.00 76 1013.4
20260501215029 42 56 5.0 10.0 0.00 0.00 0.00 75 1013.4
20260501214556 43 9 5.0 10.0 0.00 0.00 0.00 74 1013.3
20260501214027 43 54 4.0 8.0 0.00 0.00 0.00 72 1013.3
20260501213536 43 56 5.0 8.0 0.00 0.00 0.00 72 1013.2
20260501213034 43 98 2.0 9.0 0.00 0.00 0.00 70 1013.1
20260501212548 43 44 4.0 6.0 0.00 0.00 0.00 70 1013.1
20260501212040 43 37 4.0 8.0 0.00 0.00 0.00 69 1013.1
20260501211525 43 89 5.0 8.0 0.00 0.00 0.00 70 1013.1
20260501211103 43 79 4.0 8.0 0.00 0.00 0.00 70 1013.1
20260501210528 44 51 3.0 6.0 0.00 0.00 0.00 69 1013.1
20260501210041 44 32 3.0 6.0 0.00 0.00 0.00 69 1013.0
20260501205544 44 37 3.0 6.0 0.00 0.00 0.00 70 1013.0
20260501205033 44 1 2.0 6.0 0.00 0.00 0.00 70 1013.0
20260501204549 44 28 3.0 6.0 0.00 0.00 0.00 69 1012.9
20260501204059 44 32 2.0 6.0 0.00 0.00 0.00 70 1012.9
20260501203550 44 61 2.0 6.0 0.00 0.00 0.00 70 1012.9
20260501203044 44 89 3.0 6.0 0.00 0.00 0.00 70 1012.9